[[{"header":{"parameterUnit":"m.s-1","parameterCategory":1,"la1":30.2991,"la2":30.254,"lo1":-89.0895,"lo2":-89.0444,"dy":0.0017,"dx":0.0017,"nx":28,"ny":28,"refTime":"2025-07-30T03:00:00:Z","depth":0,"parameterNumber":2,"parameterNumberName":"U-component_of_WINDS"},"data":[0,0,0,0,0,0,0,0,0,0,0,0,0,0,0,0,0,0,0,0,0,0,0,0,0,0,0,0,0,0,0,0,0,0,0,0,0,0,0,0,0,0,0,0,0,0,0,0,0,0,0,0,0,0,0,0,0,0,4.1813,4.1814,0,4.1921,4.1923,4.1924,4.1861,4.1858,4.1855,4.1852,4.1962,4.1968,4.1973,0,0,0,0,0,0,0,0,0,0,0,0,0,4.1549,4.1554,4.1813,4.1814,4.1815,4.1921,4.1923,4.1924,4.1862,4.1858,4.1854,4.1851,4.196,4.1967,4.1974,0,0,0,0,0,0,0,0,0,0,0,0,0,4.1661,4.1556,4.1812,4.1797,4.1797,4.1921,4.1923,4.1924,4.1863,4.1858,4.1853,4.1849,4.1958,4.1966,4.1975,4.2119,0,0,4.2001,4.2005,0,0,0,0,0,0,0,0,4.1655,4.1671,4.1798,4.1798,4.1798,4.1873,4.187,4.199,4.1864,4.1838,4.1852,4.1847,4.1936,4.1946,4.1976,4.2125,4.2129,4.2002,4.2007,4.2011,4.2013,0,0,0,0,0,0,0,4.1647,4.1666,4.1855,4.18,4.18,4.1784,4.1795,4.1892,4.1911,4.184,4.1835,4.1849,4.1935,4.1968,4.1979,4.2131,4.2002,4.2009,4.2015,4.2018,4.2401,4.2406,0,0,0,0,0,0,4.1641,4.166,4.1852,4.1859,4.1714,4.1793,4.1805,4.1854,4.191,4.1914,4.1853,4.1846,4.1956,4.1969,4.1982,4.2153,4.2011,4.2019,4.2024,4.2396,4.2402,4.2407,0,0,0,0,0,0,4.1635,4.1659,4.1848,4.1758,4.1781,4.1802,4.1857,4.1858,4.1891,4.192,4.1923,4.1883,4.1953,4.197,4.2085,4.2156,4.2023,4.2031,4.239,4.2398,4.2405,4.2497,0,0,0,0,0,0,4.1628,4.1657,4.1713,4.176,4.1786,4.195,4.1862,4.1864,4.1906,4.1898,4.1949,4.1953,4.195,4.2073,4.2094,4.2165,4.2037,4.2384,4.2393,4.2402,4.2488,4.2507,4.2523,0,0,0,0,0,4.1619,4.1734,4.1716,4.1739,4.1856,4.1954,4.1969,4.1964,4.1913,4.1968,4.1986,4.1952,4.2146,4.2085,4.2108,4.2184,4.2379,4.2391,4.2402,4.248,4.2503,4.2523,0,0,0,0,0,0,4.1694,4.174,4.172,4.1854,4.1901,4.1943,4.2013,4.1989,4.205,4.204,4.203,4.2043,4.2162,4.2185,4.2117,4.2326,4.2254,4.2271,4.2306,4.2328,4.2345,4.2336,4.2045,0,0,0,0,0,4.1727,4.1803,4.1839,4.1954,4.1978,4.1992,4.2034,4.2027,4.2074,4.2093,4.212,4.2167,4.2238,4.2285,4.2352,4.2492,4.2501,4.2555,4.2573,4.2587,4.26,4.2674,4.2697,4.2444,4.2444,4.2444,0,0,4.1794,4.1828,4.1877,4.197,4.2005,4.2082,4.2009,4.2095,4.2152,4.2106,4.2215,4.2237,4.2289,4.2417,4.2474,4.2439,4.2673,4.2602,4.2613,4.2618,4.2688,4.2712,4.2733,4.2452,4.2451,4.2449,0,0,4.1955,4.199,4.2089,4.2125,4.218,4.2188,4.2212,4.2259,4.2271,4.2381,4.2348,4.2416,4.254,4.2577,4.2612,4.2789,4.2758,4.2811,4.2902,4.2974,4.2994,4.3011,4.3071,4.3093,4.2825,4.2825,4.2826,0,4.2031,4.2148,4.2142,4.2231,4.2271,4.2235,4.2333,4.2369,4.2443,4.2471,4.2432,4.2585,4.2617,4.2752,4.2795,4.2826,4.2851,4.2804,4.2992,4.3009,4.3025,4.3082,4.3105,4.2831,4.2831,4.283,4.2829,0,4.2237,4.2319,4.2392,4.2463,4.2513,4.2607,4.2614,4.2665,4.2654,4.2666,4.2778,4.2816,4.289,4.2922,4.2912,4.3055,4.3031,4.2993,4.292,4.3055,4.3109,4.3131,4.284,4.2837,4.2836,4.2834,0,0,4.2446,4.2514,4.2541,4.2572,4.263,4.2692,4.2784,4.2856,4.2899,4.2951,4.3026,4.3132,4.3096,4.3136,4.313,4.3193,4.3327,4.3146,4.3147,4.3175,4.3485,4.3511,4.3537,4.3309,4.3313,4.3317,4.3479,0,4.2609,4.2768,4.2766,4.2913,4.2987,4.2954,4.3033,4.3077,4.3092,4.3156,4.3172,4.3246,4.3194,4.3218,4.328,4.3298,4.3389,4.3287,4.3376,4.3379,4.3361,4.3565,4.3594,4.3745,4.35,4.3504,4.3507,0,4.2819,4.2878,4.3033,4.3078,4.3109,4.3181,4.3246,4.3309,4.3357,4.3363,4.3409,4.3393,4.3484,4.3412,4.3537,4.3468,4.3505,4.352,4.3525,4.3531,4.3449,4.3572,4.3794,4.3815,4.354,4.3537,4.3535,0,4.2951,4.307,4.3178,4.3206,4.3263,4.3313,4.3339,4.3383,4.3427,4.3484,4.3512,4.358,4.3616,4.3668,4.3671,4.3618,4.3796,4.3725,4.3802,4.3802,4.3838,4.3835,4.4064,4.3868,4.3868,4.3867,4.3867,0,4.3131,4.3226,4.3238,4.3303,4.3409,4.3406,4.351,4.3531,4.3571,4.3639,4.3616,4.368,4.3681,4.3747,4.375,4.3852,4.3869,4.3875,4.3874,4.3875,4.3874,4.3897,4.3885,4.3873,4.3872,4.3871,4.387,0,4.3295,4.3307,4.3421,4.3466,4.348,4.3555,4.3593,4.3655,4.3668,4.3755,4.3775,4.3796,4.3872,4.388,4.3969,4.3971,4.4093,4.4082,4.4076,4.4073,4.4148,4.414,4.4397,4.443,4.4216,4.4218,4.422,0,4.3407,4.3479,4.3532,4.3576,4.3605,4.3677,4.3721,4.3722,4.3768,4.3829,4.3883,4.3958,4.4016,4.414,4.4162,4.4229,4.4218,4.4304,4.4228,4.4226,4.4215,4.4209,4.4215,4.4317,4.432,4.4321,4.4323,0,4.3603,4.3605,4.367,4.3737,4.379,4.3843,4.3893,4.393,4.3937,4.3991,4.4068,4.4114,4.4205,4.4278,4.4345,4.437,4.4347,4.4348,4.4368,4.4368,4.436,4.4362,4.4112,4.4341,4.4339,4.4337,4.4337,4.4336,4.3742,4.3804,4.385,4.3923,4.396,4.4007,4.4067,4.4088,4.4153,4.4227,4.4224,4.4309,4.4355,4.4442,4.4473,4.4539,4.451,4.4541,4.4548,4.4555,4.4561,4.4353,4.4552,4.4551,4.4551,4.455,4.455,0,4.3933,4.3962,4.4029,4.4099,4.4156,4.4131,4.4185,4.4233,4.4309,4.4354,4.4413,4.4502,4.4573,4.4601,4.467,4.4717,4.4708,4.4735,4.473,4.4735,4.4585,4.4558,4.4741,4.4741,4.4741,4.4741,4.4741,4.4741,4.4039,4.4142,4.415,4.4271,4.4299,4.4382,4.4415,4.4457,4.4493,4.4594,4.4652,4.4671,4.4709,4.4781,4.4844,4.4851,4.4876,4.4907,4.4908,4.4766,4.4746,4.4728,4.4703,4.4913,4.4913,4.5053,4.5054,4.5055]},{"header":{"parameterUnit":"m.s-1","parameterCategory":1,"la1":30.2991,"la2":30.254,"lo1":-89.0895,"lo2":-89.0444,"dy":0.0017,"dx":0.0017,"nx":28,"ny":28,"refTime":"2025-07-30T03:00:00:Z","depth":0,"parameterNumber":3,"parameterNumberName":"V-component_of_WINDS"},"data":[0,0,0,0,0,0,0,0,0,0,0,0,0,0,0,0,0,0,0,0,0,0,0,0,0,0,0,0,0,0,0,0,0,0,0,0,0,0,0,0,0,0,0,0,0,0,0,0,0,0,0,0,0,0,0,0,0,0,2.9478,2.9479,0,2.956,2.9561,2.9562,2.954,2.9539,2.9537,2.9535,2.9618,2.9622,2.9625,0,0,0,0,0,0,0,0,0,0,0,0,0,2.93,2.9303,2.9478,2.9479,2.948,2.956,2.9561,2.9562,2.9541,2.9539,2.9537,2.9535,2.9617,2.9621,2.9626,0,0,0,0,0,0,0,0,0,0,0,0,0,2.9379,2.9304,2.9478,2.9479,2.948,2.956,2.9561,2.9563,2.9541,2.9538,2.9536,2.9534,2.9615,2.9621,2.9626,2.971,0,0,2.9643,2.9646,0,0,0,0,0,0,0,0,2.9375,2.9386,2.9478,2.9479,2.948,2.9538,2.9529,2.9612,2.9542,2.9518,2.9535,2.9533,2.9593,2.96,2.9621,2.9714,2.9717,2.9644,2.9647,2.965,2.9651,0,0,0,0,0,0,0,2.9369,2.9382,2.9511,2.9479,2.9481,2.9474,2.9483,2.9544,2.9568,2.952,2.9518,2.9528,2.9593,2.9616,2.9623,2.9719,2.9644,2.9649,2.9652,2.9654,2.9883,2.9886,0,0,0,0,0,0,2.9363,2.9378,2.9508,2.9513,2.942,2.948,2.9489,2.9522,2.9567,2.9572,2.953,2.9527,2.9607,2.9616,2.9626,2.9726,2.965,2.9655,2.9658,2.988,2.9884,2.9886,0,0,0,0,0,0,2.9359,2.9375,2.9505,2.9445,2.9461,2.9485,2.9522,2.9524,2.9547,2.9576,2.9579,2.9549,2.9606,2.9618,2.9689,2.9729,2.9657,2.9662,2.9877,2.9881,2.9885,2.9928,0,0,0,0,0,0,2.9354,2.9374,2.9406,2.9446,2.9464,2.9567,2.9524,2.9528,2.9557,2.9553,2.9594,2.9599,2.9605,2.9681,2.9695,2.9735,2.9667,2.9874,2.9879,2.9884,2.9923,2.9933,2.9942,0,0,0,0,0,2.9348,2.9415,2.9408,2.9424,2.9506,2.957,2.958,2.9587,2.956,2.9593,2.9611,2.9597,2.9722,2.9688,2.9704,2.9746,2.9871,2.9877,2.9883,2.9919,2.9931,2.9941,0,0,0,0,0,0,2.9379,2.942,2.9413,2.9495,2.9529,2.9566,2.9607,2.9599,2.9641,2.9636,2.9641,2.9651,2.9723,2.9742,2.9704,2.9829,2.9793,2.9802,2.9815,2.9826,2.9835,2.9829,2.9671,0,0,0,0,0,2.9396,2.9445,2.9478,2.9547,2.9564,2.9583,2.9611,2.9613,2.9648,2.9662,2.9686,2.972,2.9767,2.9798,2.9842,2.9926,2.9934,2.9963,2.9972,2.9979,2.9987,3.0032,3.0045,2.9907,2.9907,2.9906,0,0,2.943,2.9459,2.9489,2.9554,2.9581,2.9631,2.9595,2.965,2.9687,2.9671,2.9739,2.9758,2.9796,2.9873,2.9909,2.9891,3.0027,2.9987,2.9993,2.9997,3.0039,3.0053,3.0064,2.9911,2.991,2.9909,0,0,2.9518,2.9545,2.9606,2.9633,2.9674,2.9685,2.97,2.9738,2.975,2.9819,2.9807,2.9851,2.9932,2.9959,2.9984,3.0082,3.0071,3.0096,3.0144,3.0188,3.0198,3.0208,3.0242,3.0255,3.0104,3.0104,3.0104,0,2.9556,2.9632,2.9637,2.9693,2.9721,2.9709,2.977,2.9796,2.9849,2.9868,2.9848,2.9949,2.9974,3.0057,3.0081,3.0101,3.0117,3.0092,3.0197,3.0206,3.0215,3.0248,3.0261,3.0107,3.0107,3.0106,3.0106,0,2.9675,2.9728,2.9772,2.9824,2.9857,2.9915,2.9928,2.9961,2.996,2.9973,3.0043,3.0073,3.0123,3.0143,3.0142,3.0226,3.0214,3.0195,3.0158,3.0231,3.0262,3.0275,3.0111,3.011,3.0109,3.0108,0,0,2.9786,2.984,2.9856,2.9879,2.9923,2.9963,3.002,3.0069,3.0097,3.0134,3.0181,3.0249,3.0232,3.026,3.0262,3.03,3.0375,3.0277,3.0278,3.0294,3.0468,3.0482,3.0497,3.0368,3.037,3.0372,3.0465,0,2.9878,2.9978,2.9985,3.0076,3.0124,3.0112,3.0161,3.0193,3.0207,3.0249,3.0265,3.0313,3.0287,3.0303,3.0341,3.0358,3.041,3.0351,3.0411,3.0413,3.0402,3.0513,3.0528,3.0614,3.0477,3.0479,3.0481,0,2.9998,3.0039,3.0135,3.0171,3.0192,3.0236,3.0281,3.0322,3.0357,3.0365,3.0396,3.0392,3.0449,3.0411,3.0489,3.0449,3.0474,3.0486,3.0489,3.0495,3.0451,3.0521,3.0642,3.0655,3.05,3.0498,3.0497,0,3.0069,3.0148,3.0215,3.0235,3.0279,3.031,3.033,3.0363,3.0392,3.0432,3.045,3.0496,3.052,3.0555,3.0564,3.0535,3.0642,3.0604,3.0649,3.0649,3.0672,3.067,3.0798,3.0688,3.0688,3.0688,3.0688,0,3.017,3.0229,3.0247,3.0288,3.0353,3.036,3.0424,3.0441,3.0471,3.0515,3.0507,3.0549,3.0557,3.06,3.0607,3.0671,3.0682,3.0689,3.069,3.069,3.0689,3.0706,3.07,3.0691,3.0691,3.069,3.0689,0,3.026,3.0275,3.0347,3.0383,3.0393,3.044,3.047,3.0509,3.0522,3.0577,3.0591,3.0611,3.0661,3.0673,3.0732,3.0737,3.0812,3.0807,3.08,3.08,3.0844,3.0839,3.0987,3.1006,3.0884,3.0885,3.0886,0,3.0324,3.0369,3.041,3.0439,3.046,3.0507,3.0537,3.0544,3.0575,3.0618,3.0652,3.0701,3.0741,3.0821,3.0841,3.0886,3.0882,3.093,3.0889,3.0887,3.0882,3.0879,3.0884,3.0938,3.094,3.0941,3.0942,0,3.0435,3.044,3.0483,3.0529,3.0565,3.0601,3.0636,3.066,3.0672,3.0707,3.0758,3.0789,3.085,3.0898,3.0943,3.0963,3.0954,3.0955,3.0967,3.0967,3.0961,3.0965,3.0821,3.0951,3.095,3.0949,3.0949,3.0949,3.0514,3.0553,3.0588,3.0636,3.0663,3.0695,3.0734,3.0751,3.0794,3.0845,3.0846,3.0902,3.0935,3.0995,3.1017,3.106,3.1045,3.1064,3.1068,3.1073,3.1076,3.0954,3.1068,3.1068,3.1068,3.1068,3.1067,0,3.0624,3.0646,3.069,3.0739,3.0777,3.0766,3.0803,3.0836,3.0885,3.0917,3.0956,3.1014,3.1061,3.1084,3.1131,3.1161,3.1158,3.1172,3.117,3.1175,3.1087,3.1072,3.1174,3.1174,3.1174,3.1174,3.1174,3.1174,3.0686,3.0752,3.0761,3.0839,3.086,3.0915,3.0937,3.0967,3.0992,3.1058,3.1097,3.1112,3.114,3.1188,3.1231,3.1236,3.1253,3.127,3.1274,3.1192,3.1181,3.117,3.1156,3.1274,3.1274,3.1357,3.1358,3.1359]}]]